Home   Weather   Huntington Beach   Past weeks

Flag for USA Past Weather in Huntington Beach, California, USA — Yesterday and Last 2 Weeks

Now
68 °F

Clear.


Feels Like: 68 °F
Forecast: 69 / 92 °F
Wind: No wind

Location: John Wayne Airport-Orange County Airport

Current Time: Sep 26, 2016 at 6:58:59 AM

Latest Report: Sep 26, 2016 at 5:53 AM


Visibility: 10 mi

Pressure: 29.90 "Hg

Humidity: 59%

Dew Point: 53 °F

Location of Huntington BeachLocation

Past Weather in Huntington Beach — Graph

°F

Huntington Beach Temperature Yesterday

Maximum temperature yesterday: 101 °F (at 12:53 PM)
Minimum temperature yesterday: 63 °F (at 5:53 AM)
Average temperature yesterday: 79 °F

High & Low Weather Summary for the Past Weeks

 TemperatureHumidityPressure
High101 °F (Sep 25, 12:53 PM)97% (Sep 19, 6:53 AM)30.08 "Hg (Sep 19, 6:53 AM)
Low60 °F (Sep 15, 4:53 AM)8% (Sep 25, 12:53 PM)29.82 "Hg (Sep 21, 4:53 PM)
Average70 °F65%29.94 "Hg
* Reported Sep 11 5:53 AM — Sep 26 5:53 AM, Huntington Beach, Weather by CustomWeather, © 2016

Note: Actual official high and low records may vary slightly from our data, if they occured in-between our weather recording intervals... More about our weather records

Advertising

Huntington Beach Weather History for the Previous 24 Hours

Scroll right to see more
 ConditionsComfort  
Time TempWeatherWind HumidityBarometerVisibility
5:53 AM
Mon, Sep 26
68 °FClear.No wind59%29.90 "Hg10 mi
4:53 AM68 °FClear.No wind57%29.89 "Hg10 mi
3:53 AM68 °FClear.No wind59%29.89 "Hg10 mi
2:53 AM70 °FClear.No wind55%29.90 "Hg10 mi
1:53 AM70 °FClear.3 mph55%29.92 "Hg10 mi
12:53 AM72 °FClear.5 mph49%29.92 "Hg10 mi
11:53 PM
Sun, Sep 25
73 °FClear.No wind46%29.92 "Hg10 mi
10:53 PM74 °FClear.5 mph43%29.93 "Hg10 mi
9:53 PM78 °FClear.3 mph36%29.92 "Hg10 mi
8:53 PM82 °FClear.No wind29%29.91 "Hg10 mi
7:53 PM82 °FClear.No wind31%29.89 "Hg10 mi
6:53 PM85 °FClear.5 mph27%29.88 "Hg10 mi
5:53 PM90 °FSunny.3 mph24%29.86 "Hg10 mi
4:53 PM92 °FSunny.9 mph18%29.86 "Hg10 mi
3:53 PM94 °FSunny.8 mph17%29.88 "Hg10 mi
2:53 PM96 °FSunny.8 mph14%29.88 "Hg10 mi
1:53 PM93 °FSunny.8 mph16%29.91 "Hg10 mi
12:53 PM101 °FSunny.14 mph8%29.93 "Hg10 mi
11:53 AM97 °FSunny.7 mph12%29.96 "Hg10 mi
10:53 AM86 °FSunny.5 mph29%29.99 "Hg10 mi
9:53 AM79 °FSunny.No wind35%30.00 "Hg10 mi
8:53 AM72 °FSunny.3 mph43%30.00 "Hg10 mi
7:53 AM67 °FSunny.No wind49%30.01 "Hg10 mi
6:53 AM63 °FSunny.No wind54%29.98 "Hg10 mi
Weather by CustomWeather, © 2016

See weather overviewHow to use our weather pages